Location: Waco, TX
(31.5480°N, 97.1670°W)
Time: 23:00:57
(UTC-06:00)

ISS - Pass Details

Date: 12 November 2018
Orbit: 402 x 408 km, 51.6° (Epoch: 16 November)

Event Time Altitude Azimuth Distance (km) Brightness Sun altitude
Rises 21:35:22 0° 189° (S) 2,295 - -52.0°
Reaches altitude 10° 21:38:01 10° 165° (SSE) 1,441 - -52.5°
Maximum altitude 21:40:01 15° 127° (SE) 1,163 - -52.9°
Drops below altitude 10° 21:42:01 10° 88° (E) 1,447 - -53.4°
Sets 21:44:41 0° 65° (ENE) 2,309 - -53.9°
